FENGYUN 1C DEB

Satellite information

Favourite Embed

Satellite Type and Status

DEBRISIN ORBIT

Key statistics

Satellite FENGYUN 1C DEB at a glance.

Uptime

9555

Days in orbit

Revolutions

≈ 14.1

Per day

Orbit

SSO

Sun Synchronous Orbit

Inclination

98.3

Latest

Satellite identification and parameters

Extended collection of information and parameters for FENGYUN 1C DEB.

Object identification

Identified? True

Debris? True

Object name: FENGYUN 1C DEB

International designator: 1999-025SN

Object number (NORAD): 30133

Object ID (CCSDS): 30133

Country: PEOPLES REPUBLIC OF CHINA (PRC)

Current information (Y/N): Y

RCS size: SMALL

Orbital parameters

Period: 102.43 minutes

Inclination: 98.3198 deg

SMA: 7251.809 km

Apoapsis: 935.742 km

Periapsis: 811.606 km

RAAN: 6.9277 deg

Eccentricy: 0.008559

Argument of periapsis: 355.4865 deg

Mean anomaly: 24.4775 deg

Mean motion: 14.05831302 rev/day

Mean motion (dot): 0.00001277 rev/day2

B* drag term: 0.00077948 1/REarth

Two-line elements (TLE)

Creation date: July 6, 2025, 6:05 p.m.

Reference frame: TEME

Reference center: EARTH

Epoch: July 6, 2025, 11:39 a.m. UTC

TLE line 0: 0 FENGYUN 1C DEB

TLE line 1: 1 30133U 99025SN 25187.48554080 .00001277 00000-0 77948-3 0 9997

TLE line 2: 2 30133 98.3198 6.9277 0085590 355.4865 24.4775 14.05831302941408

Live tracking on map

Real-time ground track for satellite FENGYUN 1C DEB.

In-orbit conjunctions

A list of the most updated potential collisions computed for object FENGYUN 1C DEB.

Target Orbit TCA Probability of collision Miss distance Type
FENGYUN 1C DEB SSO 2025-02-05 07:18:21 0.0001192474 139.0 (m) DEBRIS
CZ-6A DEB SSO 2024-12-16 15:51:09 0.0001243099 147.0 (m) DEBRIS

Associated space launch

Chinese polar orbiting meteorological satellite

FENGYUN 1C DEB was lifted into orbit during the mission ‘Long March 4B | Feng Yun 1C’, on board a Long March 4B space rocket.

The launch took place on May 10, 1999, 1:33 a.m. from Launch Complex 7.

For more information about the launch, click the button.

Launch to space Long March 4B | Feng Yun 1C
Long March 4B | Feng Yun 1C

Agency: N/A

Status: Launch Successful

Launch date: May 10, 1999, 1:33 a.m. UTC

Rocket: Long March 4B

Launch pad: Launch Complex 7

Location: Taiyuan Satellite Launch Center, People's Republic of China

...

Latest news about this satellite

There are no fresh news available about this satellite. Check back as we update our databases every day.


Newsletter sign-up

Weekly statistics, charts and insights to help you stay on top of the space industry.